Torna al catalogo

METEOR 2-5 DEB

AttivoPO
NORAD 35256·DEBRIS·🇷🇺 Russia

Lanciato Oct 31, 1979 da Plesetsk Cosmodrome

Loading…

Prossimi Passaggi (prossime 24 ore)

TLE

AggiornatoSource: Space-Track

Epoca: Sep 13, 2026, 14:30 UTC

1 35256U 79095X   26256.60442286  .00005525  00000-0  15324-2 0  9998
2 35256  81.1872   7.1173 0007759 295.2019  64.8367 14.46454749661178

Traccia METEOR 2-5 DEB in tempo reale con AllMySat

Download on the App Store